| time (UTC) | temp C | wind direction | speed KPH | gust KPH | rain 1hr cm | rain 24hr cm | rain mn cm | humidity % | barometer mb |
| 20260906190931 | 30 | 72 | 0.0 | 3.2 | 0.00 | 0.00 | 0.00 | 68 | 1012.2 |
| 20260906190429 | 30 | 79 | 0.0 | 4.8 | 0.00 | 0.00 | 0.00 | 69 | 1012.2 |
| 20260906185924 | 29 | 105 | 3.2 | 4.8 | 0.00 | 0.00 | 0.00 | 69 | 1012.3 |
| 20260906185424 | 30 | 79 | 0.0 | 3.2 | 0.00 | 0.00 | 0.00 | 70 | 1012.8 |
| 20260906184923 | 30 | 124 | 0.0 | 4.8 | 0.00 | 0.00 | 0.00 | 68 | 1012.8 |
| 20260906184419 | 30 | 118 | 1.6 | 4.8 | 0.00 | 0.00 | 0.00 | 69 | 1013.0 |
| 20260906183913 | 29 | 114 | 0.0 | 3.2 | 0.00 | 0.00 | 0.00 | 68 | 1012.8 |
| 20260906183410 | 30 | 188 | 0.0 | 3.2 | 0.00 | 0.00 | 0.00 | 68 | 1013.0 |
| 20260906182905 | 29 | 230 | 0.0 | 4.8 | 0.00 | 0.00 | 0.00 | 69 | 1013.1 |
| 20260906182401 | 30 | 19 | 0.0 | 3.2 | 0.00 | 0.00 | 0.00 | 68 | 1013.1 |
| 20260906181856 | 30 | 60 | 3.2 | 4.8 | 0.00 | 0.00 | 0.00 | 67 | 1013.0 |
| 20260906181352 | 30 | 245 | 0.0 | 3.2 | 0.00 | 0.00 | 0.00 | 68 | 1013.2 |
| 20260906180848 | 30 | 174 | 0.0 | 3.2 | 0.00 | 0.00 | 0.00 | 68 | 1013.1 |
| 20260906180342 | 30 | 89 | 0.0 | 3.2 | 0.00 | 0.00 | 0.00 | 68 | 1013.4 |
| 20260906175839 | 30 | 220 | 0.0 | 3.2 | 0.00 | 0.00 | 0.00 | 68 | 1013.3 |
| 20260906175335 | 30 | 103 | 0.0 | 4.8 | 0.00 | 0.00 | 0.00 | 68 | 1013.3 |
| 20260906174834 | 30 | 109 | 4.8 | 4.8 | 0.00 | 0.00 | 0.00 | 68 | 1013.4 |
| 20260906174333 | 30 | 135 | 3.2 | 6.4 | 0.00 | 0.00 | 0.00 | 66 | 1013.3 |
| 20260906173828 | 30 | 145 | 3.2 | 4.8 | 0.00 | 0.00 | 0.00 | 67 | 1013.4 |
| 20260906173324 | 30 | 114 | 0.0 | 4.8 | 0.00 | 0.00 | 0.00 | 68 | 1013.4 |
| 20260906172823 | 30 | 123 | 1.6 | 3.2 | 0.00 | 0.00 | 0.00 | 67 | 1013.5 |
| 20260906172320 | 29 | 189 | 3.2 | 4.8 | 0.00 | 0.00 | 0.00 | 68 | 1013.4 |
| 20260906171820 | 29 | 104 | 3.2 | 4.8 | 0.00 | 0.00 | 0.00 | 69 | 1013.7 |
| 20260906171314 | 29 | 145 | 1.6 | 3.2 | 0.00 | 0.00 | 0.00 | 69 | 1013.9 |
| 20260906170810 | 29 | 123 | 3.2 | 3.2 | 0.00 | 0.00 | 0.00 | 69 | 1014.0 |
| 20260906170306 | 29 | 216 | 1.6 | 4.8 | 0.00 | 0.00 | 0.00 | 69 | 1014.1 |
| 20260906165802 | 29 | 156 | 1.6 | 3.2 | 0.00 | 0.00 | 0.00 | 68 | 1014.0 |
| 20260906165256 | 29 | 207 | 3.2 | 4.8 | 0.00 | 0.00 | 0.00 | 68 | 1014.0 |
| 20260906164755 | 29 | 262 | 0.0 | 4.8 | 0.00 | 0.00 | 0.00 | 68 | 1013.9 |
| 20260906164250 | 29 | 152 | 0.0 | 3.2 | 0.00 | 0.00 | 0.00 | 69 | 1013.9 |
| 20260906163746 | 29 | 189 | 1.6 | 6.4 | 0.00 | 0.00 | 0.00 | 67 | 1013.9 |
| 20260906163243 | 30 | 132 | 1.6 | 4.8 | 0.00 | 0.00 | 0.00 | 66 | 1013.8 |
| 20260906162739 | 30 | 143 | 1.6 | 6.4 | 0.00 | 0.00 | 0.00 | 66 | 1014.0 |
| 20260906162234 | 29 | 241 | 0.0 | 3.2 | 0.00 | 0.00 | 0.00 | 67 | 1013.8 |
| 20260906161734 | 28 | 322 | 0.0 | 1.6 | 0.00 | 0.00 | 0.00 | 68 | 1014.0 |
| 20260906161233 | 28 | 105 | 3.2 | 3.2 | 0.00 | 0.00 | 0.00 | 69 | 1014.1 |
| 20260906160732 | 28 | 86 | 1.6 | 4.8 | 0.00 | 0.00 | 0.00 | 70 | 1014.0 |
| 20260906160231 | 28 | 49 | 3.2 | 4.8 | 0.00 | 0.00 | 0.00 | 69 | 1014.1 |
| 20260906155729 | 28 | 249 | 3.2 | 6.4 | 0.00 | 0.00 | 0.00 | 69 | 1014.2 |
| 20260906155224 | 28 | 132 | 0.0 | 1.6 | 0.00 | 0.00 | 0.00 | 70 | 1014.2 |
| 20260906154720 | 28 | 79 | 0.0 | 4.8 | 0.00 | 0.00 | 0.00 | 70 | 1014.2 |
| 20260906154215 | 27 | 264 | 1.6 | 4.8 | 0.00 | 0.00 | 0.00 | 71 | 1014.2 |
| 20260906153713 | 27 | 283 | 0.0 | 4.8 | 0.00 | 0.00 | 0.00 | 71 | 1014.2 |
| 20260906153208 | 27 | 222 | 1.6 | 4.8 | 0.00 | 0.00 | 0.00 | 72 | 1014.3 |
| 20260906152703 | 27 | 146 | 0.0 | 3.2 | 0.00 | 0.00 | 0.00 | 73 | 1014.3 |
| 20260906152157 | 27 | 257 | 4.8 | 4.8 | 0.00 | 0.00 | 0.00 | 72 | 1014.3 |
| 20260906151651 | 27 | 243 | 0.0 | 4.8 | 0.00 | 0.00 | 0.00 | 74 | 1014.0 |
| 20260906151148 | 27 | 78 | 0.0 | 3.2 | 0.00 | 0.00 | 0.00 | 77 | 1014.1 |
| 20260906150643 | 26 | 146 | 0.0 | 6.4 | 0.00 | 0.00 | 0.00 | 77 | 1014.1 |
| 20260906150138 | 27 | 94 | 0.0 | 1.6 | 0.00 | 0.00 | 0.00 | 79 | 1014.3 |
| 20260906145637 | 26 | 82 | 0.0 | 3.2 | 0.00 | 0.00 | 0.00 | 79 | 1014.0 |
| 20260906145131 | 26 | 107 | 0.0 | 4.8 | 0.00 | 0.00 | 0.00 | 81 | 1013.8 |
| 20260906144631 | 26 | 1 | 0.0 | 4.8 | 0.00 | 0.00 | 0.00 | 80 | 1013.8 |
| 20260906144127 | 26 | 326 | 0.0 | 3.2 | 0.00 | 0.00 | 0.00 | 81 | 1014.2 |
| 20260906143626 | 26 | 326 | 0.0 | 6.4 | 0.00 | 0.00 | 0.00 | 80 | 1014.2 |
| 20260906143124 | 26 | 286 | 0.0 | 8.0 | 0.00 | 0.00 | 0.00 | 81 | 1014.1 |
| 20260906142622 | 26 | 19 | 0.0 | 1.6 | 0.00 | 0.00 | 0.00 | 79 | 1014.0 |
| 20260906142118 | 26 | 3 | 3.2 | 4.8 | 0.00 | 0.00 | 0.00 | 78 | 1014.1 |
| 20260906141617 | 26 | 6 | 0.0 | 3.2 | 0.00 | 0.00 | 0.00 | 78 | 1014.2 |
| 20260906141112 | 26 | 264 | 3.2 | 9.7 | 0.00 | 0.00 | 0.00 | 79 | 1014.3 |
| 20260906140611 | 26 | 290 | 3.2 | 4.8 | 0.00 | 0.00 | 0.00 | 79 | 1014.0 |
| 20260906140106 | 26 | 299 | 1.6 | 3.2 | 0.00 | 0.00 | 0.00 | 80 | 1013.5 |
| 20260906135603 | 26 | 94 | 1.6 | 4.8 | 0.00 | 0.00 | 0.00 | 81 | 1013.3 |
| 20260906135059 | 26 | 118 | 3.2 | 6.4 | 0.00 | 0.00 | 0.00 | 80 | 1013.6 |
| 20260906134555 | 26 | 97 | 3.2 | 6.4 | 0.00 | 0.00 | 0.00 | 80 | 1013.5 |
| 20260906134055 | 26 | 100 | 3.2 | 4.8 | 0.00 | 0.00 | 0.00 | 81 | 1013.5 |
| 20260906133550 | 26 | 97 | 4.8 | 6.4 | 0.00 | 0.00 | 0.00 | 81 | 1013.9 |
| 20260906133045 | 26 | 92 | 0.0 | 4.8 | 0.00 | 0.00 | 0.00 | 80 | 1013.4 |
| 20260906132540 | 26 | 116 | 3.2 | 8.0 | 0.00 | 0.00 | 0.00 | 80 | 1013.5 |
| 20260906132036 | 25 | 115 | 3.2 | 4.8 | 0.00 | 0.00 | 0.00 | 81 | 1013.5 |
| 20260906131531 | 25 | 82 | 3.2 | 4.8 | 0.00 | 0.00 | 0.00 | 81 | 1013.4 |
| 20260906131027 | 25 | 109 | 4.8 | 6.4 | 0.00 | 0.00 | 0.00 | 81 | 1013.5 |
| 20260906130526 | 26 | 102 | 3.2 | 6.4 | 0.00 | 0.00 | 0.00 | 81 | 1013.4 |
| 20260906130021 | 25 | 91 | 3.2 | 6.4 | 0.00 | 0.00 | 0.00 | 81 | 1013.3 |
| 20260906125518 | 25 | 97 | 4.8 | 6.4 | 0.00 | 0.00 | 0.00 | 82 | 1013.3 |
| 20260906125013 | 25 | 109 | 3.2 | 4.8 | 0.00 | 0.00 | 0.00 | 82 | 1013.3 |
| 20260906124509 | 25 | 101 | 3.2 | 6.4 | 0.00 | 0.00 | 0.00 | 81 | 1013.4 |
| 20260906124004 | 25 | 87 | 3.2 | 8.0 | 0.00 | 0.00 | 0.00 | 81 | 1013.2 |
| 20260906123502 | 25 | 92 | 3.2 | 6.4 | 0.00 | 0.00 | 0.00 | 81 | 1013.1 |
| 20260906122956 | 25 | 76 | 3.2 | 4.8 | 0.00 | 0.00 | 0.00 | 81 | 1012.8 |
| 20260906122451 | 25 | 81 | 3.2 | 4.8 | 0.00 | 0.00 | 0.00 | 80 | 1013.0 |
| 20260906121948 | 25 | 113 | 3.2 | 4.8 | 0.00 | 0.00 | 0.00 | 81 | 1012.8 |
| 20260906121444 | 25 | 90 | 1.6 | 4.8 | 0.00 | 0.00 | 0.00 | 80 | 1013.0 |
| 20260906120940 | 25 | 101 | 3.2 | 4.8 | 0.00 | 0.00 | 0.00 | 80 | 1012.7 |
| 20260906120435 | 25 | 109 | 1.6 | 4.8 | 0.00 | 0.00 | 0.00 | 79 | 1012.6 |
| 20260906115931 | 25 | 132 | 3.2 | 4.8 | 0.00 | 0.00 | 0.00 | 80 | 1012.7 |
| 20260906115427 | 25 | 110 | 3.2 | 4.8 | 0.00 | 0.00 | 0.00 | 80 | 1012.7 |
| 20260906114926 | 25 | 79 | 3.2 | 4.8 | 0.00 | 0.00 | 0.00 | 80 | 1012.5 |
| 20260906114421 | 25 | 83 | 3.2 | 6.4 | 0.00 | 0.00 | 0.00 | 79 | 1012.5 |
| 20260906113917 | 26 | 93 | 3.2 | 6.4 | 0.00 | 0.00 | 0.00 | 78 | 1012.4 |
| 20260906113415 | 26 | 99 | 4.8 | 6.4 | 0.00 | 0.00 | 0.00 | 79 | 1012.4 |
| 20260906112911 | 26 | 83 | 1.6 | 4.8 | 0.00 | 0.00 | 0.00 | 78 | 1012.3 |
| 20260906112407 | 26 | 105 | 3.2 | 4.8 | 0.00 | 0.00 | 0.00 | 78 | 1012.4 |
| 20260906111902 | 26 | 109 | 4.8 | 8.0 | 0.00 | 0.00 | 0.00 | 77 | 1012.3 |
| 20260906111401 | 26 | 133 | 0.0 | 6.4 | 0.00 | 0.00 | 0.00 | 78 | 1012.4 |
| 20260906110856 | 26 | 111 | 3.2 | 4.8 | 0.00 | 0.00 | 0.00 | 78 | 1012.4 |
| 20260906110352 | 26 | 120 | 3.2 | 4.8 | 0.00 | 0.00 | 0.00 | 77 | 1012.2 |
| 20260906105851 | 26 | 126 | 1.6 | 4.8 | 0.00 | 0.00 | 0.00 | 77 | 1012.3 |
| 20260906105347 | 26 | 107 | 1.6 | 4.8 | 0.00 | 0.00 | 0.00 | 78 | 1012.1 |
| 20260906104842 | 26 | 97 | 3.2 | 4.8 | 0.00 | 0.00 | 0.00 | 77 | 1012.4 |
| 20260906104341 | 26 | 122 | 1.6 | 6.4 | 0.00 | 0.00 | 0.00 | 76 | 1012.3 |
| 20260906103839 | 26 | 110 | 4.8 | 6.4 | 0.00 | 0.00 | 0.00 | 77 | 1012.2 |
| 20260906103338 | 26 | 118 | 3.2 | 4.8 | 0.00 | 0.00 | 0.00 | 77 | 1012.3 |
| 20260906102834 | 26 | 119 | 3.2 | 4.8 | 0.00 | 0.00 | 0.00 | 77 | 1012.3 |
| 20260906102333 | 26 | 86 | 1.6 | 6.4 | 0.00 | 0.00 | 0.00 | 76 | 1012.4 |
| 20260906101828 | 26 | 119 | 1.6 | 4.8 | 0.00 | 0.00 | 0.00 | 77 | 1012.4 |
| 20260906101323 | 26 | 108 | 3.2 | 4.8 | 0.00 | 0.00 | 0.00 | 77 | 1012.4 |
| 20260906100819 | 26 | 130 | 0.0 | 6.4 | 0.00 | 0.00 | 0.00 | 76 | 1012.1 |
| 20260906100318 | 26 | 118 | 3.2 | 6.4 | 0.00 | 0.00 | 0.00 | 77 | 1012.2 |
| 20260906095813 | 26 | 118 | 3.2 | 4.8 | 0.00 | 0.00 | 0.00 | 78 | 1012.2 |
| 20260906095309 | 26 | 129 | 3.2 | 6.4 | 0.00 | 0.00 | 0.00 | 77 | 1012.1 |
| 20260906094808 | 26 | 129 | 4.8 | 9.7 | 0.00 | 0.00 | 0.00 | 77 | 1012.1 |
| 20260906094303 | 26 | 119 | 3.2 | 6.4 | 0.00 | 0.00 | 0.00 | 78 | 1011.9 |
| 20260906093759 | 26 | 124 | 3.2 | 6.4 | 0.00 | 0.00 | 0.00 | 79 | 1011.9 |
| 20260906093255 | 26 | 119 | 4.8 | 6.4 | 0.00 | 0.00 | 0.00 | 78 | 1012.0 |
| 20260906092749 | 26 | 137 | 3.2 | 6.4 | 0.00 | 0.00 | 0.00 | 79 | 1012.2 |
| 20260906092244 | 26 | 112 | 3.2 | 6.4 | 0.00 | 0.00 | 0.00 | 79 | 1012.4 |
| 20260906091740 | 26 | 105 | 3.2 | 8.0 | 0.00 | 0.00 | 0.00 | 79 | 1012.0 |
| 20260906091236 | 26 | 106 | 4.8 | 6.4 | 0.00 | 0.00 | 0.00 | 78 | 1012.4 |
| 20260906090732 | 26 | 121 | 3.2 | 8.0 | 0.00 | 0.00 | 0.00 | 79 | 1012.3 |
| 20260906090231 | 26 | 99 | 3.2 | 8.0 | 0.00 | 0.00 | 0.00 | 79 | 1012.2 |
| 20260906085731 | 26 | 109 | 3.2 | 6.4 | 0.00 | 0.00 | 0.00 | 78 | 1012.3 |
| 20260906085230 | 26 | 116 | 4.8 | 8.0 | 0.00 | 0.00 | 0.00 | 78 | 1012.3 |
| 20260906084725 | 26 | 108 | 4.8 | 8.0 | 0.00 | 0.00 | 0.00 | 78 | 1012.3 |
| 20260906084224 | 26 | 114 | 3.2 | 4.8 | 0.00 | 0.00 | 0.00 | 77 | 1012.3 |
| 20260906083720 | 26 | 103 | 4.8 | 8.0 | 0.00 | 0.00 | 0.00 | 77 | 1012.4 |
| 20260906083215 | 26 | 124 | 3.2 | 6.4 | 0.00 | 0.00 | 0.00 | 77 | 1012.4 |
| 20260906082710 | 26 | 138 | 3.2 | 6.4 | 0.00 | 0.00 | 0.00 | 78 | 1012.5 |
| 20260906082205 | 26 | 115 | 4.8 | 4.8 | 0.00 | 0.00 | 0.00 | 77 | 1012.3 |
| 20260906081701 | 26 | 128 | 4.8 | 6.4 | 0.00 | 0.00 | 0.00 | 77 | 1012.3 |
| 20260906081150 | 26 | 125 | 3.2 | 8.0 | 0.00 | 0.00 | 0.00 | 78 | 1012.2 |
| 20260906080647 | 26 | 104 | 3.2 | 9.7 | 0.00 | 0.00 | 0.00 | 78 | 1012.0 |
| 20260906080143 | 26 | 124 | 4.8 | 8.0 | 0.00 | 0.00 | 0.00 | 77 | 1012.0 |
| 20260906075642 | 26 | 114 | 4.8 | 8.0 | 0.00 | 0.00 | 0.00 | 78 | 1012.2 |
| 20260906075136 | 26 | 107 | 3.2 | 4.8 | 0.00 | 0.00 | 0.00 | 78 | 1012.1 |
| 20260906074632 | 26 | 91 | 4.8 | 8.0 | 0.00 | 0.00 | 0.00 | 78 | 1012.1 |
| 20260906074130 | 26 | 117 | 6.4 | 8.0 | 0.00 | 0.00 | 0.00 | 77 | 1012.2 |
| 20260906073626 | 26 | 110 | 4.8 | 9.7 | 0.00 | 0.00 | 0.00 | 78 | 1012.2 |
| 20260906073121 | 26 | 120 | 3.2 | 6.4 | 0.00 | 0.00 | 0.00 | 77 | 1012.0 |
| 20260906072616 | 27 | 118 | 4.8 | 6.4 | 0.00 | 0.00 | 0.00 | 75 | 1012.0 |
| 20260906072112 | 27 | 115 | 4.8 | 8.0 | 0.00 | 0.00 | 0.00 | 75 | 1012.0 |
| 20260906071608 | 27 | 118 | 4.8 | 6.4 | 0.00 | 0.00 | 0.00 | 74 | 1011.9 |
| 20260906071103 | 27 | 113 | 4.8 | 9.7 | 0.00 | 0.00 | 0.00 | 73 | 1011.9 |
| 20260906070600 | 27 | 109 | 3.2 | 8.0 | 0.00 | 0.00 | 0.00 | 75 | 1012.1 |
| 20260906070055 | 27 | 114 | 4.8 | 8.0 | 0.00 | 0.00 | 0.00 | 76 | 1012.1 |
| 20260906065554 | 27 | 116 | 4.8 | 6.4 | 0.00 | 0.00 | 0.00 | 76 | 1012.2 |
| 20260906065050 | 27 | 99 | 3.2 | 8.0 | 0.00 | 0.00 | 0.00 | 75 | 1012.3 |
| 20260906064546 | 27 | 108 | 4.8 | 8.0 | 0.00 | 0.00 | 0.00 | 76 | 1012.0 |
| 20260906064040 | 27 | 97 | 4.8 | 8.0 | 0.00 | 0.00 | 0.00 | 76 | 1012.3 |
| 20260906063535 | 27 | 117 | 4.8 | 4.8 | 0.00 | 0.00 | 0.00 | 76 | 1012.4 |
| 20260906063026 | 27 | 124 | 3.2 | 8.0 | 0.00 | 0.00 | 0.00 | 76 | 1012.2 |
| 20260906062521 | 27 | 105 | 4.8 | 6.4 | 0.00 | 0.00 | 0.00 | 77 | 1012.1 |
| 20260906062015 | 27 | 111 | 4.8 | 8.0 | 0.00 | 0.00 | 0.00 | 77 | 1012.0 |
| 20260906061511 | 27 | 110 | 4.8 | 8.0 | 0.00 | 0.00 | 0.00 | 76 | 1012.4 |
| 20260906061005 | 27 | 115 | 4.8 | 6.4 | 0.00 | 0.00 | 0.00 | 76 | 1012.1 |
| 20260906060502 | 27 | 92 | 4.8 | 6.4 | 0.00 | 0.00 | 0.00 | 75 | 1012.3 |
| 20260906055958 | 27 | 93 | 3.2 | 8.0 | 0.00 | 0.00 | 0.00 | 74 | 1012.5 |
| 20260906055454 | 27 | 112 | 3.2 | 6.4 | 0.00 | 0.00 | 0.00 | 73 | 1012.4 |
| 20260906054949 | 27 | 140 | 3.2 | 6.4 | 0.00 | 0.00 | 0.00 | 73 | 1012.5 |
| 20260906054449 | 27 | 118 | 0.0 | 4.8 | 0.00 | 0.00 | 0.00 | 73 | 1012.2 |
| 20260906053945 | 27 | 121 | 3.2 | 4.8 | 0.00 | 0.00 | 0.00 | 72 | 1012.7 |
| 20260906053441 | 27 | 122 | 4.8 | 6.4 | 0.00 | 0.00 | 0.00 | 72 | 1012.7 |
| 20260906052936 | 27 | 113 | 3.2 | 4.8 | 0.00 | 0.00 | 0.00 | 73 | 1012.4 |
| 20260906052432 | 27 | 112 | 3.2 | 6.4 | 0.00 | 0.00 | 0.00 | 72 | 1012.4 |
| 20260906051929 | 28 | 112 | 3.2 | 6.4 | 0.00 | 0.00 | 0.00 | 71 | 1012.2 |
| 20260906051424 | 28 | 101 | 3.2 | 6.4 | 0.00 | 0.00 | 0.00 | 71 | 1012.3 |
| 20260906050919 | 28 | 107 | 1.6 | 4.8 | 0.00 | 0.00 | 0.00 | 71 | 1012.4 |
| 20260906050414 | 28 | 100 | 3.2 | 8.0 | 0.00 | 0.00 | 0.00 | 70 | 1012.5 |
| 20260906045913 | 28 | 100 | 3.2 | 4.8 | 0.00 | 0.00 | 0.00 | 70 | 1012.4 |
| 20260906045412 | 28 | 100 | 3.2 | 4.8 | 0.00 | 0.00 | 0.00 | 70 | 1012.3 |
| 20260906044908 | 28 | 120 | 1.6 | 4.8 | 0.00 | 0.00 | 0.00 | 70 | 1012.1 |
| 20260906044403 | 28 | 106 | 0.0 | 4.8 | 0.00 | 0.00 | 0.00 | 70 | 1012.2 |
| 20260906043859 | 28 | 98 | 3.2 | 4.8 | 0.00 | 0.00 | 0.00 | 70 | 1012.2 |
| 20260906043354 | 28 | 98 | 3.2 | 6.4 | 0.00 | 0.00 | 0.00 | 70 | 1012.2 |
| 20260906042849 | 28 | 132 | 1.6 | 4.8 | 0.00 | 0.00 | 0.00 | 71 | 1012.3 |
| 20260906042348 | 28 | 82 | 3.2 | 4.8 | 0.00 | 0.00 | 0.00 | 70 | 1011.9 |
| 20260906041844 | 28 | 113 | 3.2 | 4.8 | 0.00 | 0.00 | 0.00 | 69 | 1011.9 |
| 20260906041339 | 29 | 118 | 0.0 | 6.4 | 0.00 | 0.00 | 0.00 | 68 | 1011.9 |
| 20260906040839 | 28 | 117 | 3.2 | 4.8 | 0.00 | 0.00 | 0.00 | 68 | 1012.1 |
| 20260906040335 | 29 | 105 | 1.6 | 3.2 | 0.00 | 0.00 | 0.00 | 67 | 1012.2 |
| 20260906035830 | 29 | 109 | 3.2 | 4.8 | 0.00 | 0.00 | 0.00 | 67 | 1012.4 |
| 20260906035325 | 29 | 113 | 1.6 | 3.2 | 0.00 | 0.00 | 0.00 | 67 | 1012.2 |
| 20260906034821 | 29 | 106 | 1.6 | 3.2 | 0.00 | 0.00 | 0.00 | 67 | 1012.3 |
| 20260906034315 | 30 | 111 | 3.2 | 6.4 | 0.00 | 0.00 | 0.00 | 65 | 1012.4 |
| 20260906033811 | 30 | 130 | 3.2 | 6.4 | 0.00 | 0.00 | 0.00 | 65 | 1012.1 |
| 20260906033310 | 30 | 119 | 3.2 | 4.8 | 0.00 | 0.00 | 0.00 | 65 | 1012.1 |
| 20260906032807 | 30 | 117 | 3.2 | 4.8 | 0.00 | 0.00 | 0.00 | 65 | 1012.0 |
| 20260906032305 | 30 | 146 | 0.0 | 6.4 | 0.00 | 0.00 | 0.00 | 65 | 1012.0 |
| 20260906031757 | 30 | 109 | 4.8 | 4.8 | 0.00 | 0.00 | 0.00 | 64 | 1011.9 |
| 20260906031253 | 30 | 95 | 3.2 | 4.8 | 0.00 | 0.00 | 0.00 | 64 | 1011.9 |
| 20260906030752 | 30 | 123 | 3.2 | 4.8 | 0.00 | 0.00 | 0.00 | 64 | 1011.9 |
| 20260906030248 | 30 | 180 | 0.0 | 4.8 | 0.00 | 0.00 | 0.00 | 63 | 1011.5 |
| 20260906025747 | 30 | 132 | 1.6 | 6.4 | 0.00 | 0.00 | 0.00 | 63 | 1011.5 |
| 20260906025241 | 30 | 109 | 1.6 | 4.8 | 0.00 | 0.00 | 0.00 | 63 | 1011.6 |
| 20260906024740 | 30 | 121 | 3.2 | 6.4 | 0.00 | 0.00 | 0.00 | 63 | 1011.6 |
| 20260906024239 | 30 | 131 | 1.6 | 4.8 | 0.00 | 0.00 | 0.00 | 64 | 1011.3 |
| 20260906023735 | 30 | 162 | 1.6 | 6.4 | 0.00 | 0.00 | 0.00 | 64 | 1011.0 |
| 20260906023231 | 30 | 131 | 4.8 | 4.8 | 0.00 | 0.00 | 0.00 | 64 | 1011.2 |
| 20260906022726 | 31 | 108 | 1.6 | 3.2 | 0.00 | 0.00 | 0.00 | 64 | 1011.0 |
| 20260906022221 | 31 | 103 | 3.2 | 4.8 | 0.00 | 0.00 | 0.00 | 64 | 1011.0 |
| 20260906021717 | 31 | 150 | 1.6 | 6.4 | 0.00 | 0.00 | 0.00 | 63 | 1010.8 |
| 20260906021215 | 31 | 116 | 3.2 | 4.8 | 0.00 | 0.00 | 0.00 | 63 | 1010.9 |
| 20260906020705 | 31 | 126 | 3.2 | 4.8 | 0.00 | 0.00 | 0.00 | 63 | 1010.8 |
| 20260906020200 | 31 | 105 | 3.2 | 6.4 | 0.00 | 0.00 | 0.00 | 63 | 1011.0 |
| 20260906015659 | 31 | 139 | 4.8 | 6.4 | 0.00 | 0.00 | 0.00 | 63 | 1010.7 |
| 20260906015153 | 31 | 120 | 0.0 | 3.2 | 0.00 | 0.00 | 0.00 | 63 | 1010.5 |
| 20260906014652 | 31 | 103 | 3.2 | 4.8 | 0.00 | 0.00 | 0.00 | 62 | 1010.7 |
| 20260906014149 | 31 | 109 | 3.2 | 4.8 | 0.00 | 0.00 | 0.00 | 62 | 1010.8 |
| 20260906013644 | 31 | 62 | 0.0 | 4.8 | 0.00 | 0.00 | 0.00 | 62 | 1010.4 |
| 20260906013140 | 31 | 84 | 0.0 | 3.2 | 0.00 | 0.00 | 0.00 | 61 | 1010.3 |
| 20260906012639 | 31 | 127 | 1.6 | 3.2 | 0.00 | 0.00 | 0.00 | 61 | 1010.3 |
| 20260906012134 | 31 | 82 | 1.6 | 3.2 | 0.00 | 0.00 | 0.00 | 61 | 1010.0 |
| 20260906011630 | 31 | 101 | 0.0 | 1.6 | 0.00 | 0.00 | 0.00 | 60 | 1010.0 |
| 20260906011125 | 32 | 78 | 1.6 | 1.6 | 0.00 | 0.00 | 0.00 | 60 | 1010.0 |
| 20260906010620 | 32 | 82 | 0.0 | 3.2 | 0.00 | 0.00 | 0.00 | 58 | 1010.0 |
| 20260906010116 | 32 | 210 | 0.0 | 1.6 | 0.00 | 0.00 | 0.00 | 57 | 1010.1 |
| 20260906005616 | 32 | 80 | 0.0 | 1.6 | 0.00 | 0.00 | 0.00 | 57 | 1010.2 |
| 20260906005115 | 32 | 57 | 1.6 | 1.6 | 0.00 | 0.00 | 0.00 | 56 | 1009.9 |
| 20260906004614 | 32 | 165 | 1.6 | 4.8 | 0.00 | 0.00 | 0.00 | 56 | 1009.9 |
| 20260906004109 | 32 | 146 | 0.0 | 3.2 | 0.00 | 0.00 | 0.00 | 56 | 1009.7 |
| 20260906003605 | 33 | 123 | 0.0 | 3.2 | 0.00 | 0.00 | 0.00 | 56 | 1010.0 |
| 20260906003101 | 33 | 127 | 1.6 | 4.8 | 0.00 | 0.00 | 0.00 | 55 | 1009.9 |
| 20260906002601 | 33 | 135 | 1.6 | 4.8 | 0.00 | 0.00 | 0.00 | 55 | 1009.9 |
| 20260906002055 | 33 | 105 | 3.2 | 3.2 | 0.00 | 0.00 | 0.00 | 55 | 1010.3 |
| 20260906001551 | 33 | 116 | 0.0 | 3.2 | 0.00 | 0.00 | 0.00 | 54 | 1009.9 |
| 20260906001045 | 33 | 106 | 1.6 | 4.8 | 0.00 | 0.00 | 0.00 | 53 | 1010.2 |
| 20260906000541 | 34 | 123 | 0.0 | 3.2 | 0.00 | 0.00 | 0.00 | 53 | 1010.2 |
| 20260906000036 | 35 | 183 | 3.2 | 3.2 | 0.00 | 0.00 | 0.00 | 51 | 1010.1 |
| 20260905235530 | 35 | 90 | 3.2 | 4.8 | 0.00 | 0.00 | 0.00 | 50 | 1010.1 |
| 20260905235025 | 35 | 160 | 0.0 | 4.8 | 0.00 | 0.00 | 0.00 | 50 | 1010.0 |
| 20260905234520 | 35 | 126 | 0.0 | 4.8 | 0.00 | 0.00 | 0.00 | 50 | 1010.1 |
| 20260905234015 | 35 | 168 | 4.8 | 9.7 | 0.00 | 0.00 | 0.00 | 49 | 1009.9 |
| 20260905233510 | 35 | 160 | 1.6 | 8.0 | 0.00 | 0.00 | 0.00 | 50 | 1009.7 |
| 20260905233009 | 35 | 173 | 0.0 | 6.4 | 0.00 | 0.00 | 0.00 | 50 | 1009.9 |
| 20260905232505 | 35 | 153 | 3.2 | 8.0 | 0.00 | 0.00 | 0.00 | 50 | 1009.6 |
| 20260905232000 | 35 | 140 | 4.8 | 6.4 | 0.00 | 0.00 | 0.00 | 50 | 1009.6 |
| 20260905231455 | 35 | 135 | 3.2 | 6.4 | 0.00 | 0.00 | 0.00 | 50 | 1009.5 |
| 20260905230952 | 35 | 138 | 3.2 | 8.0 | 0.00 | 0.00 | 0.00 | 50 | 1009.7 |
| 20260905230450 | 35 | 149 | 4.8 | 9.7 | 0.00 | 0.00 | 0.00 | 50 | 1009.8 |
| 20260905225949 | 36 | 129 | 1.6 | 4.8 | 0.00 | 0.00 | 0.00 | 50 | 1010.0 |
| 20260905225444 | 35 | 127 | 3.2 | 4.8 | 0.00 | 0.00 | 0.00 | 51 | 1009.7 |
| 20260905224939 | 35 | 147 | 3.2 | 8.0 | 0.00 | 0.00 | 0.00 | 51 | 1009.7 |
| 20260905224435 | 35 | 145 | 3.2 | 9.7 | 0.00 | 0.00 | 0.00 | 51 | 1009.5 |
| 20260905223933 | 35 | 159 | 1.6 | 6.4 | 0.00 | 0.00 | 0.00 | 52 | 1009.7 |
| 20260905223432 | 35 | 143 | 1.6 | 9.7 | 0.00 | 0.00 | 0.00 | 51 | 1009.8 |
| 20260905222927 | 35 | 162 | 4.8 | 9.7 | 0.00 | 0.00 | 0.00 | 51 | 1009.9 |
| 20260905222426 | 35 | 129 | 3.2 | 9.7 | 0.00 | 0.00 | 0.00 | 51 | 1009.8 |
| 20260905221922 | 35 | 145 | 4.8 | 8.0 | 0.00 | 0.00 | 0.00 | 51 | 1009.8 |
| 20260905221418 | 35 | 132 | 4.8 | 8.0 | 0.00 | 0.00 | 0.00 | 51 | 1009.8 |
| 20260905220915 | 35 | 144 | 3.2 | 14.5 | 0.00 | 0.00 | 0.00 | 52 | 1009.8 |
| 20260905220410 | 35 | 125 | 8.0 | 12.9 | 0.00 | 0.00 | 0.00 | 51 | 1009.6 |
| 20260905215909 | 35 | 116 | 4.8 | 8.0 | 0.00 | 0.00 | 0.00 | 53 | 1009.8 |
| 20260905215405 | 35 | 125 | 3.2 | 9.7 | 0.00 | 0.00 | 0.00 | 55 | 1009.7 |
| 20260905214901 | 35 | 134 | 4.8 | 8.0 | 0.00 | 0.00 | 0.00 | 59 | 1010.0 |
| 20260905214356 | 35 | 129 | 4.8 | 8.0 | 0.00 | 0.00 | 0.00 | 59 | 1009.7 |
| 20260905213851 | 35 | 174 | 3.2 | 9.7 | 0.00 | 0.00 | 0.00 | 60 | 1009.9 |
| 20260905213347 | 35 | 115 | 3.2 | 8.0 | 0.00 | 0.00 | 0.00 | 59 | 1010.1 |
| 20260905212842 | 34 | 146 | 4.8 | 8.0 | 0.00 | 0.00 | 0.00 | 61 | 1010.0 |
| 20260905212341 | 35 | 112 | 4.8 | 8.0 | 0.00 | 0.00 | 0.00 | 60 | 1010.1 |
| 20260905211836 | 34 | 80 | 6.4 | 6.4 | 0.00 | 0.00 | 0.00 | 62 | 1010.2 |
| 20260905211331 | 34 | 122 | 6.4 | 14.5 | 0.00 | 0.00 | 0.00 | 62 | 1010.3 |
| 20260905210828 | 35 | 172 | 3.2 | 11.3 | 0.00 | 0.00 | 0.00 | 60 | 1010.4 |
| 20260905210327 | 35 | 111 | 4.8 | 9.7 | 0.00 | 0.00 | 0.00 | 60 | 1010.5 |
| 20260905205826 | 35 | 135 | 4.8 | 11.3 | 0.00 | 0.00 | 0.00 | 59 | 1010.6 |
| 20260905205321 | 35 | 101 | 4.8 | 6.4 | 0.00 | 0.00 | 0.00 | 60 | 1010.6 |
| 20260905204821 | 34 | 149 | 1.6 | 11.3 | 0.00 | 0.00 | 0.00 | 61 | 1010.7 |
| 20260905204317 | 35 | 79 | 3.2 | 14.5 | 0.00 | 0.00 | 0.00 | 59 | 1011.0 |
| 20260905203815 | 35 | 115 | 4.8 | 6.4 | 0.00 | 0.00 | 0.00 | 60 | 1010.8 |
| 20260905203312 | 34 | 92 | 4.8 | 12.9 | 0.00 | 0.00 | 0.00 | 61 | 1011.2 |
| 20260905202807 | 34 | 108 | 4.8 | 8.0 | 0.00 | 0.00 | 0.00 | 60 | 1011.1 |
| 20260905202306 | 35 | 95 | 4.8 | 12.9 | 0.00 | 0.00 | 0.00 | 59 | 1011.2 |
| 20260905201757 | 35 | 46 | 6.4 | 11.3 | 0.00 | 0.00 | 0.00 | 59 | 1011.2 |
| 20260905201253 | 35 | 171 | 3.2 | 8.0 | 0.00 | 0.00 | 0.00 | 57 | 1011.3 |
| 20260905200747 | 35 | 106 | 3.2 | 8.0 | 0.00 | 0.00 | 0.00 | 59 | 1011.4 |
| 20260905200243 | 35 | 100 | 6.4 | 12.9 | 0.00 | 0.00 | 0.00 | 60 | 1011.8 |
| 20260905195741 | 35 | 103 | 4.8 | 8.0 | 0.00 | 0.00 | 0.00 | 59 | 1011.6 |
| 20260905195236 | 35 | 29 | 6.4 | 11.3 | 0.00 | 0.00 | 0.00 | 58 | 1011.8 |
| 20260905194732 | 35 | 139 | 4.8 | 6.4 | 0.00 | 0.00 | 0.00 | 60 | 1011.6 |
| 20260905194231 | 34 | 121 | 0.0 | 9.7 | 0.00 | 0.00 | 0.00 | 60 | 1012.1 |
| 20260905193725 | 35 | 57 | 8.0 | 9.7 | 0.00 | 0.00 | 0.00 | 58 | 1012.2 |
| 20260905193220 | 34 | 71 | 4.8 | 17.7 | 0.00 | 0.00 | 0.00 | 59 | 1012.1 |
| 20260905192716 | 34 | 46 | 6.4 | 12.9 | 0.00 | 0.00 | 0.00 | 59 | 1012.2 |
| 20260905192212 | 33 | 357 | 4.8 | 9.7 | 0.00 | 0.00 | 0.00 | 61 | 1012.5 |
| 20260905191711 | 33 | 91 | 3.2 | 9.7 | 0.00 | 0.00 | 0.00 | 61 | 1012.5 |